Regional Weather Roundup
Issued by NWS Newport/Morehead, NC

Current Version | Previous Version | Text Only | Print | Product List | Glossary On
Versions: 1 2 3 4 5 6 7 8 9 10 11 12 13 14 15 16 17 18 19 20 21 22 23 24 25 26 27 28 29 30 31 32 33 34 35 36 37 38 39 40 41 42 43 44 45 46 47 48 49 50
000 ASUS42 KMHX 010410 RWRMHX WEATHER ROUNDUP FOR EASTERN NORTH CAROLINA NATIONAL WEATHER SERVICE NEWPORT/MOREHEAD CITY NC 1100 PM EST SAT JAN 31 2015 NOTE: "FAIR" INDICATES FEW OR NO CLOUDS BELOW 12,000 FEET WITH NO SIGNIFICANT WEATHER AND/OR OBSTRUCTIONS TO VISIBILITY NCZ015>017-031-032-045>047-102-103-010500- NORTH COAST CITY SKY/WX TMP DP RH WIND PRES REMARKS EDENTON CLEAR 31 23 70 SW5 30.31S ELIZABETH CITY CLEAR 28 20 71 S3 30.31S KITTY HAWK CLEAR 32 24 70 SW3 30.30S MANTEO CLEAR 34 21 60 SW6 30.31F $$ NCZ045>047-081-094-103-104-010500- CENTRAL COAST CITY SKY/WX TMP DP RH WIND PRES REMARKS FRISCO CLEAR 28 24 85 W6 30.33S SWANQUARTER N/A 36 N/A N/A S5 30.30S $$ NCZ095-097-098-100-101-010500- SOUTHERN COAST CITY SKY/WX TMP DP RH WIND PRES REMARKS BEAUFORT CLEAR 29 22 75 CALM 30.34S CEDAR ISLAND N/A N/A N/A N/A S2 30.36S JACKSONVILLE PTCLDY 35 23 61 SW3 30.33F PINEY ISLAND N/A N/A N/A N/A MISG 30.33F WILMINGTON PTCLDY 33 27 78 CALM 30.34S $$ NCZ011>013-027>030-043-044-078>080-089-090>093-098-010500- COASTAL PLAIN CITY SKY/WX TMP DP RH WIND PRES REMARKS AHOSKIE CLEAR 26 18 71 CALM 30.31S CLINTON CLEAR 31 21 65 CALM 30.33S ELIZABETHTOWN CLEAR 35 21 56 S3 30.32F GOLDSBORO CLEAR 36 16 43 CALM 30.30S GREENVILLE CLEAR 32 23 69 CALM 30.32S HAVELOCK CLEAR 28 21 75 CALM 30.35S KENANSVILLE PTCLDY 28 22 78 CALM 30.33F KINSTON CLEAR 31 19 60 S3 30.32F NEW BERN CLEAR 28 21 75 S3 30.34F RICHLANDS FAIR 30 19 64 CALM 30.33F ROCKY MOUNT CLEAR 28 20 71 CALM 30.30F WASHINGTON CLEAR 29 20 68 CALM 30.32S WHITEVILLE CLEAR 36 23 60 SW3 30.33S $$ AMZ130-135-150-152-154-156-158-170-250-252-270-ANZ085-086-088-633-658-670-010500- MARINE OBSERVATIONS STATION/POSITION TIME TEMP WIND PRES WAVE SWELL AIR SEA DIR/SP/G HT/PER HT/PER (UTC) (F) (DEG/KT/KT) (MB) (FT/S) (FT/S) CHESAPEAKE LIGHT 0300 37 260/ 4/ 5 1026.4 64 E VA BEACH 0400 40 48 290/ 12/ 14 1025.4 6/ 8 5/ 8 DUCK 0400 36 40 220/ 6/ 9 1025.1 2 E DUCK 0400 41 N/A 3/ 8 10 NE DUCK 0400 43 N/A 4/ 8 OREGON INLET 0400 36 39 210/ 5/ 6 1026.5 13E OREGON INLT 0400 45 N/A 5/ 8 2/12 HATTERAS CG 0400 38 42 250/ 5/ 6 1027.4 DIAMOND BUOY 0400 46 71 280/ 12/ 17 1027.0 5/11 5/11 17 S OCRACOKE NOT AVBL CAPE LOOKOUT 0300 43 280/ 2/ 2 1027.3 BEAUFORT LAB 0400 37 45 CALM / 1 1026.0 27 SE WRIGHTSVLE NOT AVBL 5 SE WRIGHTSVLE 0300 47 51 230/ 8/ 10 1027.4 225 S CAPE HAT 0321 55 69 350/ 12/ 17 1027.3 10/10 10/10 41 SE CHARLESTON 0400 53 69 300/ 2/ 4 1027.8 4/11 5/11 $$

USA.gov is the U.S. government's official web portal to all federal, state and local government web resources and services.